Location: Cahas Mountain Overlook
(37.0833°N, 80.1000°W)
Time: 23:26:18
(UTC-04:00)

Oscar 11 - Visible Passes

Search period start: 16 March 2026 00:00
Search period end: 26 March 2026 00:00
Orbit: 590 x 602 km, 97.8° (Epoch: 16 March)

Date Brightness Start Highest point End Pass type
(mag) Time Alt. Az. Time Alt. Az. Time Alt. Az.
16 Mar 10.1 04:15:14 10° NE 04:15:24 11° NE 04:15:24 11° NE visible
16 Mar 9.2 05:51:25 10° NNW 05:52:04 13° NNW 05:52:04 13° NNW visible
17 Mar 9.9 04:24:58 10° NNE 04:25:35 14° NNE 04:25:35 14° NNE visible
17 Mar 9.2 06:01:51 10° NNW 06:02:16 11° NW 06:02:16 11° NW visible
18 Mar 9.5 04:34:46 10° NNE 04:35:47 17° NNE 04:35:47 17° NNE visible
19 Mar 9.2 04:44:37 10° NNE 04:45:58 20° NNE 04:45:58 20° NNE visible
20 Mar 8.9 04:54:31 10° N 04:56:09 23° N 04:56:09 23° N visible
21 Mar 8.7 05:04:29 10° N 05:06:20 25° N 05:06:20 25° N visible
22 Mar 8.5 05:14:28 10° N 05:16:32 26° NNW 05:16:32 26° NNW visible
23 Mar 8.4 05:24:31 10° N 05:26:42 26° NNW 05:26:42 26° NNW visible
24 Mar 10.0 03:59:29 10° NE 04:00:12 13° NE 04:00:12 13° NE visible
24 Mar 8.4 05:34:38 10° NNW 05:36:52 23° NW 05:36:52 23° NW visible
25 Mar 9.7 04:09:03 10° NE 04:10:21 17° NE 04:10:21 17° NE visible
25 Mar 8.5 05:44:49 10° NNW 05:47:02 20° NW 05:47:02 20° NW visible
